DELTA 1 DEB, 42090

Orbit data source: Space-Track

DELTA 1 DEB, 42090 is space debris in SSO originally from a launch on Sun, 15 Dec 1968 UTC launched from the Air Force Western Test Range (AFWTR). Debris objects in space refer to the collection of defunct objects orbiting the Earth. Examples of debris include non-operational satellites, rocket bodies, and fragments generated from explosions, collisions, or faulty payload assembly.

Loading next visibility...
Identifier
42090, 1968-114S
Orbit
SSO
Country
Flag of USUS
Related business
Manufacturer
Aerojet
Mission
Spacecraft
Bus & Motor
Unknown
Mass
Unknown
Launch date (UTC)
1968-12-15 (57 years ago)
Launch vehicle
Unknown
Launch site
Air Force Western Test Range (AFWTR)
Object type
Payload
Rocket body
Debris
Shape & HBR
Unknown shape, 0.1 m
Radar Cross Section
Small (<0.1 m²)

Expand to show TLE details & history
Last TLE update: 2 days ago

TLE from 2 days ago
0 DELTA 1 DEB
1 42090U 68114S   25289.65458435  .00000409  00000-0  32296-2 0  9998
2 42090 101.4033  78.2199 0113076 315.4037  62.6066 12.41751274145466
Epoch: 2025-10-16T15:42Z
TLE epoch observation values (Epoch: 2025-10-16T15:42:36.087Z)
Latitude
18.77422°
Longitude
173.24633°
Altitude
1,461.093 km
Speed
7.152 km/s
True Right ascension
04h 57m 13s
True Declination
18° 40' 45"
Sunlit
Object was in full shadow at epoch
Visualization orbit readout
Latitude
Unknown
Longitude
Unknown
Altitude
Unknown
Speed
Unknown
Apparent Right ascension
Unknown
Apparent Declination
Unknown
Sunlit
N/A
Visualization observer readout
Local Sidereal Time
04:25:12
Azimuth
Unknown
Elevation
Unknown
Doppler factor
Unknown
Orbital elements
Apogee altitude
1,585.771 km
Perigee altitude
1,407.68 km
Semi-major axis
7,874.862 km
Eccentricity
0.01131
Inclination
101.4033°
RAAN
78.2199°
Arg. of periapsis
315.4037°
True anomaly
63.76451°
Mean anomaly
62.6066°
Eccentric anomaly
63.18481°
Mean motion
3.10584 °/min
Orbital period
115.91 mins
BSTAR
0.0032296
Loading maneuver chart data...
Computing Atmospheric mass density...
Loading historical data...
Loading historical data...
Loading historical data...
Loading historical data...
Loading historical data...
Loading historical data...
Loading historical data...

Documentation

Showing up to 5 results
|